KE4BFX Weather Reports


time (UTC)temp
C
wind
direction
speed
KPH
gust
KPH
rain 1hr
cm
rain 24hr
cm
rain mn
cm
humidity
%
barometer
mb
20260510190003 28 194 3.2 4.8 0.00 0.18 0.00 71 1015.7
20260510184004 29 196 3.2 14.5 0.00 0.18 0.00 70 1016.1
20260510183003 28 159 6.4 11.3 0.00 0.18 0.00 71 1016.2
20260510182004 28 338 3.2 4.8 0.00 0.18 0.00 69 1016.3
20260510181003 28 323 3.2 11.3 0.00 0.18 0.00 71 1016.5
20260510180004 28 327 4.8 4.8 0.00 0.18 0.00 69 1016.6
20260510174004 28 298 3.2 8.0 0.00 0.18 0.00 68 1016.6
20260510173004 28 341 4.8 12.9 0.00 0.18 0.00 71 1016.7
20260510172004 28 309 6.4 14.5 0.00 0.18 0.00 70 1016.7
20260510171004 28 328 8.0 12.9 0.00 0.18 0.00 69 1016.7
20260510170004 28 21 1.6 9.7 0.00 0.20 0.00 74 1016.8
20260510165004 27 26 1.6 8.0 0.00 0.23 0.00 74 1016.8
20260510164004 27 76 1.6 8.0 0.00 0.28 0.00 75 1016.9
20260510162004 27 307 3.2 4.8 0.00 0.46 0.00 76 1016.8
20260510161004 26 152 1.6 3.2 0.00 0.56 0.00 77 1016.9
20260510160004 26 152 3.2 4.8 0.00 0.66 0.00 78 1016.7
20260510155004 26 74 3.2 4.8 0.00 0.81 0.00 80 1016.7
20260510154004 25 42 3.2 4.8 0.00 0.89 0.00 84 1016.7
20260510153004 25 57 1.6 8.0 0.00 0.97 0.00 87 1016.7
20260510152004 24 82 1.6 4.8 0.00 1.04 0.00 89 1016.8
20260510151004 23 1 3.2 4.8 0.00 1.07 0.00 91 1016.8
20260510150004 23 355 4.8 9.7 0.00 1.12 0.00 92 1017.1
20260510145005 23 19 3.2 8.0 0.00 1.17 0.00 92 1017.0
20260510144004 22 42 1.6 8.0 0.00 1.19 0.00 92 1017.3
20260510143005 22 37 1.6 4.8 0.00 1.19 0.00 92 1017.3
20260510142004 22 37 1.6 4.8 0.00 1.19 0.00 92 1017.3
20260510141004 21 36 0.0 4.8 0.00 1.24 0.00 92 1017.1
20260510140004 21 29 3.2 4.8 0.00 1.24 0.00 93 1017.1
20260510135004 21 17 1.6 4.8 0.00 1.24 0.00 92 1016.9
20260510134004 20 349 1.6 4.8 0.00 1.24 0.00 92 1017.0
20260510133005 20 349 0.0 4.8 0.00 1.24 0.00 92 1016.9
20260510132004 20 347 1.6 4.8 0.00 1.24 0.00 92 1017.0
20260510131004 20 340 3.2 9.7 0.00 1.24 0.00 92 1016.9
20260510130004 20 341 4.8 9.7 0.00 1.24 0.00 92 1016.7
20260510125004 19 15 4.8 4.8 0.00 1.24 0.00 92 1016.5
20260510124005 19 18 1.6 4.8 0.00 1.27 0.00 92 1016.3
20260510123004 18 13 4.8 4.8 0.00 1.27 0.00 92 1016.2
20260510122005 18 51 1.6 4.8 0.00 1.27 0.00 92 1016.0
20260510115004 17 51 0.0 3.2 0.00 1.27 0.00 91 1015.4
20260510114004 17 51 1.6 3.2 0.00 1.27 0.00 91 1015.3
20260510113005 17 51 0.0 4.8 0.00 1.27 0.00 91 1015.3
20260510112004 17 51 1.6 4.8 0.00 1.27 0.00 91 1015.2
20260510111005 17 51 0.0 3.2 0.00 1.30 0.00 91 1015.1
20260510110005 18 51 0.0 1.6 0.00 1.30 0.00 91 1014.9
20260510104005 18 51 0.0 3.2 0.00 1.30 0.00 91 1014.7
20260510103005 18 51 0.0 3.2 0.00 1.30 0.00 91 1014.6
20260510102004 18 51 0.0 1.6 0.00 1.30 0.00 91 1014.5
20260510100004 18 51 1.6 4.8 0.00 1.30 0.00 91 1014.4
20260510095005 18 51 1.6 4.8 0.00 1.30 0.00 91 1014.2
20260510094005 18 51 1.6 4.8 0.00 1.30 0.00 91 1014.1
20260510093005 18 48 0.0 1.6 0.00 1.30 0.00 91 1013.9
20260510091004 18 48 0.0 3.2 0.00 1.30 0.00 91 1013.8
20260510090004 18 48 1.6 3.2 0.00 1.30 0.00 91 1013.8
20260510085006 18 48 1.6 4.8 0.00 1.30 0.00 91 1013.7
20260510084004 18 51 1.6 4.8 0.00 1.30 0.00 91 1013.6
20260510083005 18 65 3.2 4.8 0.00 1.30 0.00 91 1013.6
20260510081005 18 101 1.6 3.2 0.00 1.30 0.00 91 1013.1
20260510080005 19 101 0.0 3.2 0.00 1.30 0.00 91 1012.9
20260510075005 19 101 1.6 3.2 0.00 1.30 0.00 91 1012.9
20260510072006 19 101 0.0 3.2 0.00 1.30 0.00 91 1013.0
20260510071005 19 101 1.6 4.8 0.00 1.30 0.00 91 1012.9
20260510070005 19 101 1.6 3.2 0.00 1.30 0.00 91 1012.7
20260510065004 19 101 1.6 4.8 0.00 1.30 0.00 91 1012.8
20260510064005 19 77 3.2 4.8 0.00 1.30 0.00 91 1012.8
20260510063005 19 69 3.2 4.8 0.00 1.30 0.00 91 1013.1
20260510061005 19 69 0.0 1.6 0.00 1.30 0.00 90 1013.4
20260510060006 19 69 0.0 1.6 0.00 1.30 0.00 90 1013.7
20260510055005 19 69 0.0 3.2 0.00 1.30 0.00 91 1013.6
20260510054005 19 69 0.0 3.2 0.00 1.32 0.00 90 1013.7
20260510052005 20 69 0.0 0.0 0.00 1.32 0.00 91 1013.8
20260510051005 20 69 0.0 0.0 0.00 1.32 0.00 91 1013.9
20260510044005 20 95 3.2 4.8 0.03 1.35 1.35 90 1013.2
20260510042005 20 246 0.0 3.2 0.03 1.35 1.35 91 1014.1
20260510041005 20 246 0.0 3.2 0.03 1.35 1.35 91 1014.0
20260510040005 20 246 1.6 3.2 0.03 1.35 1.35 90 1014.2
20260510035005 20 246 0.0 4.8 0.03 1.35 1.35 90 1014.3
20260510034005 20 245 1.6 8.0 0.00 1.32 1.32 90 1014.5
20260510033005 20 30 0.0 3.2 0.00 1.32 1.32 90 1014.2
20260510031005 20 30 0.0 1.6 0.00 1.32 1.32 90 1014.0
20260510030005 20 30 0.0 1.6 0.00 1.32 1.32 90 1013.9
20260510025005 20 30 1.6 1.6 0.00 1.32 1.32 90 1013.9
20260510024005 20 30 0.0 3.2 0.00 1.32 1.32 90 1013.7
20260510023006 20 30 1.6 3.2 0.00 1.35 1.32 90 1013.6
20260510022005 20 30 1.6 4.8 0.03 1.35 1.32 90 1013.6
20260510020005 20 82 1.6 4.8 0.03 1.35 1.32 90 1013.6
20260510014006 20 75 3.2 4.8 0.03 1.42 1.32 90 1013.4
20260510013006 20 300 1.6 4.8 0.05 1.42 1.32 90 1013.7
20260510012005 20 296 3.2 4.8 0.03 1.40 1.30 90 1013.8
20260510011005 20 296 0.0 3.2 0.03 1.45 1.30 90 1013.9
20260510010005 20 296 0.0 1.6 0.03 1.45 1.30 90 1013.9
20260510005005 20 296 0.0 9.7 0.03 1.47 1.30 89 1014.0
20260510004005 20 279 3.2 11.3 0.03 1.47 1.30 90 1013.9
20260510003005 20 11 3.2 4.8 0.03 1.45 1.27 90 1013.4
20260510002006 20 345 1.6 4.8 0.03 1.45 1.27 89 1012.7
20260510001006 20 338 1.6 16.1 0.05 1.45 1.27 89 1012.8
20260510000006 20 326 4.8 19.3 0.05 1.45 1.27 89 1012.6
20260509235005 20 124 12.9 20.9 0.05 1.47 1.27 89 1011.7
20260509231005 21 49 3.2 4.8 0.03 1.45 1.22 88 1012.6
20260509230005 21 47 1.6 3.2 0.05 1.45 1.22 88 1012.8
20260509225005 21 46 3.2 4.8 0.05 1.45 1.22 88 1013.1
20260509223005 21 47 1.6 4.8 0.03 1.45 1.19 88 1012.8
20260509221006 21 45 0.0 3.2 0.03 1.45 1.19 88 1012.5
20260509220006 21 45 1.6 4.8 0.00 1.42 1.17 88 1012.6
20260509215005 21 45 3.2 4.8 0.00 1.42 1.17 88 1012.8
20260509214006 21 46 3.2 4.8 0.00 1.42 1.17 88 1012.4
20260509213006 21 130 6.4 9.7 0.00 1.47 1.17 87 1011.8
20260509211006 22 63 3.2 4.8 0.00 1.57 1.17 87 1012.5
20260509210006 21 306 0.0 3.2 0.00 1.57 1.17 87 1012.8
20260509205005 21 306 1.6 4.8 0.00 1.57 1.17 87 1012.8
20260509204005 21 306 1.6 4.8 0.00 1.57 1.17 87 1012.7
20260509203006 21 308 1.6 4.8 0.00 1.57 1.17 87 1012.4
20260509202006 21 306 1.6 8.0 0.00 1.57 1.17 87 1012.3
20260509200006 21 153 6.4 20.9 0.00 1.57 1.17 87 1011.0
20260509195006 21 124 9.7 16.1 0.00 1.57 1.17 86 1010.4
20260509194006 21 96 3.2 9.7 0.00 1.57 1.17 86 1010.8
20260509193005 21 152 8.0 14.5 0.00 1.57 1.17 86 1010.8
20260509192006 21 162 9.7 12.9 0.00 1.57 1.17 87 1010.8
20260509191006 21 153 4.8 11.3 0.00 1.57 1.17 88 1010.8